TimeEDT,TemperatureF,Dew PointF,Humidity,Sea Level PressureIn,VisibilityMPH,Wind Direction,Wind SpeedMPH,Gust SpeedMPH,PrecipitationIn,Events,Conditions,WindDirDegrees,DateUTC
12:56 AM,42.1,36.0,79,30.02,-9999.0,Calm,Calm,-,N/A,,Unknown,0,2013-09-09 04:56:00
1:56 AM,41.0,36.0,82,30.05,-9999.0,Variable,3.5,-,N/A,,Unknown,0,2013-09-09 05:56:00
2:56 AM,42.1,36.0,79,30.06,-9999.0,Calm,Calm,-,N/A,,Unknown,0,2013-09-09 06:56:00
3:56 AM,39.0,35.1,86,30.06,-9999.0,Calm,Calm,-,N/A,,Unknown,0,2013-09-09 07:56:00
4:56 AM,37.0,34.0,89,30.09,-9999.0,Calm,Calm,-,N/A,,Unknown,0,2013-09-09 08:56:00
5:56 AM,37.0,34.0,89,30.11,-9999.0,Calm,Calm,-,N/A,,Unknown,0,2013-09-09 09:56:00
6:56 AM,39.9,35.1,83,30.12,-9999.0,Calm,Calm,-,N/A,,Unknown,0,2013-09-09 10:56:00
7:56 AM,45.0,37.9,76,30.14,-9999.0,Calm,Calm,-,N/A,,Unknown,0,2013-09-09 11:56:00
8:56 AM,51.1,37.0,59,30.14,-9999.0,Calm,Calm,-,N/A,,Unknown,0,2013-09-09 12:56:00
9:56 AM,54.0,37.9,55,30.12,-9999.0,Variable,5.8,-,N/A,,Unknown,0,2013-09-09 13:56:00
10:56 AM,57.0,37.0,47,30.12,-9999.0,NW,9.2,-,N/A,,Unknown,320,2013-09-09 14:56:00
11:56 AM,60.1,37.0,42,30.10,-9999.0,Variable,4.6,-,N/A,,Unknown,0,2013-09-09 15:56:00
12:56 PM,62.1,37.9,41,30.09,-9999.0,Calm,Calm,-,N/A,,Unknown,0,2013-09-09 16:56:00
1:56 PM,64.0,39.0,40,30.08,-9999.0,Calm,Calm,-,N/A,,Unknown,0,2013-09-09 17:56:00
2:56 PM,64.0,39.0,40,30.07,-9999.0,Variable,3.5,-,N/A,,Unknown,0,2013-09-09 18:56:00
3:56 PM,63.0,41.0,45,30.07,-9999.0,Calm,Calm,-,N/A,,Unknown,0,2013-09-09 19:56:00
4:56 PM,64.0,42.1,45,30.05,-9999.0,Calm,Calm,-,N/A,,Unknown,0,2013-09-09 20:56:00
5:56 PM,61.0,43.0,52,30.05,-9999.0,Calm,Calm,-,N/A,,Unknown,0,2013-09-09 21:56:00
6:56 PM,57.0,44.1,62,30.06,-9999.0,Calm,Calm,-,N/A,,Unknown,0,2013-09-09 22:56:00
7:56 PM,55.0,42.1,62,30.07,-9999.0,Calm,Calm,-,N/A,,Unknown,0,2013-09-09 23:56:00
8:56 PM,53.1,43.0,69,30.07,-9999.0,Calm,Calm,-,N/A,,Unknown,0,2013-09-10 00:56:00
9:56 PM,54.0,43.0,66,30.07,-9999.0,Calm,Calm,-,N/A,,Unknown,0,2013-09-10 01:56:00
10:56 PM,51.1,45.0,80,30.07,-9999.0,Calm,Calm,-,N/A,,Unknown,0,2013-09-10 02:56:00
11:56 PM,51.1,45.0,80,30.06,-9999.0,South,3.5,-,N/A,,Unknown,180,2013-09-10 03:56:00